星链-37790(STARLINK-37790)

导读

STARLINK-37790(NORAD编号69312)是美国SpaceX公司星链低轨通信星座的组网卫星,属Starlink v1.5平台,由美国研发及运营。该卫星运行于近地轨道,轨道高度约570-574公里,轨道倾角69.998°,运行周期约96.1分钟,可实现全球广域覆盖。 作为星链网络的组成部分,该卫星配备相控阵天线与激光星间链路,支持Ku/Ka频段通信,可提供低时延宽带互联网服务,目前在轨运行状态稳定,正为全球用户提供网络接入支撑,助力星链系统提升高纬度区域覆盖能力。

Basic Information
目录编号:
69312
目录名称:
STARLINK-37790
国际标识:
2026-119S
轨道中心:
EARTH
卫星名称:
星链-37790
卫星全名:
星链-37790(STARLINK-37790)
卫星状态:
在轨 (已飞行97 天)
发射日期:
2026-05-30 UTC
国别 :
美国 (US)
星等 :
--
Orbit Information
数据来源 国际轨道数据 AOE轨道数据
星历时间 2026-09-03T09:31:58+0800
1天前
查看轨道信息
2026-09-03T22:00:00+0800
15小时前
查看轨道信息
半长轴 6843.685km 6843.715km
偏心率 0.0001429 0.0001859
轨道倾角 97.283° 97.283°
近地点辐角 105.026° 109.766°
升交点赤经 271.086° 271.600°
平近点角 255.114° 236.113°
近地点 464.57km 464.305km
远地点 466.526km 466.851km
周期 93.906分钟 93.907分钟
每日圈数 15.334437 15.334334
Detailed Information
固有亮度:
5
最大亮度:
2.5
卫星平台:
Starlink V1.0
覆盖范围:
全球
运营商:
太空探索技术公司
运营商所在国:
美国
制造商(研发单位):
太空探索技术公司
制造商所在国:
美国
使用方式:
暂无
Satellite Introduction
Starlink 计划是 SpaceX 推出的全球卫星互联网项目,通过发射低轨道卫星,为全球尤其是偏远地区提供高速、低延迟的互联网服务。自 2019 年起,Starlink 已部署数千颗卫星,旨在缩小全球数字鸿沟,推动互联网普及。该项目还为军事、航空等行业提供通信支持,带来广泛经济效益。
2D Orbit Map
3D Orbit Map
Orbit Altitude Analysis Chart
Orbit Inclination Analysis Chart
Orbit Comprehensive Analysis Chart
View Comprehensive Chart
Conjunction Data List
Event ID Objects TCA Miss Dist (km) Collision Risk Probability Collision Risk Index (CRI) Action
CDM_260830-182206-591806-931221
2026-08-30T
18:22:00+0000
1.957 km
极远距离
3.016329E-6 低风险 0.45
CDM_260905-042406-785706-931221
2026-09-05T
04:24:07+0000
2.559 km
极远距离
1.682814E-6 低风险 0.4
CDM_260903-220005-400206-931221
2026-09-03T
22:00:42+0000
2.604 km
极远距离
1.623053E-6 低风险 0.39
CDM_260830-175305-363606-931222
2026-08-30T
17:53:30+0000
2.876 km
极远距离
1.281328E-6 低风险 0.37
CDM_260830-080204-859406-931221
2026-08-30T
08:02:15+0000
2.942 km
极远距离
1.279164E-6 低风险 0.37
CDM_260830-162506-074606-931222
OBJECT B (60746)
2026-08-30T
16:25:52+0000
2.994 km
极远距离
1.243112E-6 低风险 0.37